Flag for U.S.A. Weather past 2 weeks in Charlotte, North Carolina, U.S.A.

Now
64 °F

Light rain. Fog.


Feels Like: 64 °F
Forecast: 63 / 76 °F
Wind: No wind

Location: Charlotte / Douglas International Airport

Current Time: Apr 19, 2015 at 9:12:28 PM

Latest Report: Apr 19, 2015 at 7:52 PM


Visibility: 5 mi

Pressure: 29.70 "Hg

Humidity: 90%

Dew point: 61 °F

Location of CharlotteLocation

Historic Weather in Charlotte — Graph

°F

Charlotte temperature yesterday

Maximum temperature yesterday: 79 °F (at 1:52 PM)
Minimum temperature yesterday: 61 °F (at 2:52 AM)
Average temperature yesterday: 69 °F

Past Weeks' High & Low Weather Summary

 TemperatureHumidityPressure
High87 °F (Apr 9, 1:52 PM)97% (Apr 17, 3:52 AM)30.38 "Hg (Apr 17, 3:52 AM)
Low37 °F (Apr 5, 7:52 AM)14% (Apr 5, 2:52 PM)29.70 "Hg (Apr 19, 7:52 PM)
Average65 °F67%30.13 "Hg
* Reported Apr 4 7:52 PM — Apr 19 7:52 PM, Charlotte, Weather by CustomWeather, © 2015

Note: Actual official high and low records may vary slightly from our data, if they occured in-between our weather recording intervals... More about our weather records

Advertising

Charlotte weather history for previous 24 hours

 ConditionsComfort  
Time TempWeatherWind HumidityBarometerVisibility
7:52 PM
Sun, Apr 19
64 °FLight rain. Fog.No wind90%29.70 "Hg5 mi
7:00 PM64 °FFog.No wind94%29.76 "Hg2 mi
6:52 PM66 °FHeavy rain. Fog.13 mph90%29.75 "Hg1 mi
5:52 PM68 °FLight rain. Fog.16 mph90%29.76 "Hg6 mi
4:52 PM68 °FFog.15 mph90%29.78 "Hg6 mi
4:04 PM68 °FHeavy rain. Fog.15 mph88%29.82 "Hg1 mi
3:52 PM68 °FLight rain. Fog.17 mph90%29.81 "Hg5 mi
2:52 PM68 °FLight rain. Mostly cloudy.14 mph90%29.85 "Hg9 mi
1:52 PM68 °FLight rain. Mostly cloudy.13 mph87%29.87 "Hg10 mi
12:52 PM66 °FHeavy rain. Fog.10 mph90%29.90 "Hg1 mi
11:57 AM66 °FHeavy rain. Fog.14 mph94%29.92 "Hg2 mi
10:52 AM67 °FLight rain. Low clouds.13 mph87%29.90 "Hg7 mi
9:52 AM67 °FLight rain. Low clouds.14 mph87%29.92 "Hg10 mi
8:52 AM66 °FLight rain. Low clouds.12 mph90%29.93 "Hg10 mi
7:52 AM66 °FLow clouds.12 mph87%29.94 "Hg10 mi
6:52 AM65 °FLight rain. Fog.10 mph91%29.93 "Hg6 mi
5:57 AM64 °FHeavy rain. Fog.10 mph94%29.95 "Hg3 mi
4:52 AM65 °FRain. Fog.10 mph91%29.93 "Hg4 mi
3:52 AM66 °FMostly cloudy.7 mph87%29.93 "Hg10 mi
2:52 AM67 °FMostly cloudy.7 mph87%29.93 "Hg10 mi
1:52 AM67 °FOvercast.7 mph85%29.96 "Hg10 mi
12:52 AM68 °FMostly cloudy.3 mph84%29.97 "Hg10 mi
11:52 PM
Sat, Apr 18
68 °FOvercast.5 mph84%29.98 "Hg10 mi
10:52 PM68 °FOvercast.5 mph82%29.99 "Hg10 mi
9:52 PM69 °FMostly cloudy.3 mph79%29.98 "Hg10 mi
Weather by CustomWeather, © 2015

See weather overviewHow to use our weather pages